|
NORAD ID: 25363 Int'l Code: 1998-036A
Perigee: 1,318.1 km
Apogee: 1,880.6 km
Inclination: 82.6 °
Period: 118.0 minutes
Semi major axis: 7970 km
Launch date: June 15, 1998
Source: Commonwealth of Independent States (former USSR) (CIS)
Comments: Satellites have a single simultaneous earth-space and space-earth channel.
Two Line Element Set (TLE):
1 25363U 98036A 13145.46502874 .00000054 00000-0 35576-3 0 893
2 25363 082.5919 296.9434 0352868 195.9546 221.1489 12.20071529665512
Source: AFSPC
NASA's NSSDC Master Catalog entry for COSMOS 2352
|